• In Deutschland
  • Länderverzeichnis
  • Für 7 Tage
  • Wassertemperatur
  • Satellitenkarten
  • Wetterkarte
  • Widgets
  • user-avatar
    Anmelden

    Stündliche Wetter Manama

    Heute, 21 Juli, Freitag

    Zeit Temperatur Niederschläge Wind Luftdruck Luftfeuchtigkeit
    00:00 +37°C° 0 mm 1 m/S 747 mmHg 34%
    01:00 +37°C° 0 mm 1 m/S 747 mmHg 34%
    02:00 +38°C° 0 mm 2 m/S 747 mmHg 34%
    03:00 +38°C° 0 mm 2 m/S 747 mmHg 35%
    04:00 +38°C° 0 mm 2 m/S 747 mmHg 34%
    05:00 +37°C° 0 mm 1 m/S 747 mmHg 34%
    06:00 +37°C° 0 mm 1 m/S 748 mmHg 34%
    07:00 +39°C° 0 mm 1 m/S 748 mmHg 31%
    08:00 +41°C° 0 mm 1 m/S 748 mmHg 27%
    09:00 +42°C° 0 mm 1 m/S 748 mmHg 24%
    10:00 +43°C° 0 mm 1 m/S 748 mmHg 22%
    11:00 +44°C° 0 mm 1 m/S 748 mmHg 20%
    12:00 +45°C° 0 mm 1 m/S 748 mmHg 18%
    13:00 +47°C° 0 mm 2 m/S 747 mmHg 17%
    14:00 +47°C° 0 mm 2 m/S 747 mmHg 16%
    15:00 +47°C° 0 mm 2 m/S 747 mmHg 15%
    16:00 +46°C° 0 mm 2 m/S 747 mmHg 16%
    17:00 +46°C° 0 mm 3 m/S 747 mmHg 16%
    18:00 +45°C° 0 mm 3 m/S 747 mmHg 17%
    19:00 +44°C° 0 mm 3 m/S 747 mmHg 21%
    20:00 +43°C° 0 mm 3 m/S 747 mmHg 24%
    21:00 +40°C° 0 mm 3 m/S 748 mmHg 28%
    22:00 +40°C° 0 mm 2 m/S 747 mmHg 30%
    23:00 +39°C° 0 mm 2 m/S 747 mmHg 32%

    Morgen, 22 Juli, Samstag

    Zeit Temperatur Niederschläge Wind Luftdruck Luftfeuchtigkeit
    00:00 +37°C° 0 mm 1 m/S 747 mmHg 34%
    01:00 +37°C° 0 mm 1 m/S 747 mmHg 35%
    02:00 +36°C° 0 mm 1 m/S 747 mmHg 36%
    03:00 +36°C° 0 mm 1 m/S 747 mmHg 37%
    04:00 +36°C° 0 mm 1 m/S 747 mmHg 35%
    05:00 +37°C° 0 mm 1 m/S 747 mmHg 33%
    06:00 +38°C° 0 mm 2 m/S 747 mmHg 31%
    07:00 +40°C° 0 mm 2 m/S 748 mmHg 27%
    08:00 +41°C° 0 mm 2 m/S 748 mmHg 24%
    09:00 +43°C° 0 mm 2 m/S 748 mmHg 20%
    10:00 +45°C° 0 mm 2 m/S 748 mmHg 19%
    11:00 +46°C° 0 mm 2 m/S 748 mmHg 18%
    12:00 +47°C° 0 mm 2 m/S 748 mmHg 17%
    13:00 +47°C° 0 mm 2 m/S 747 mmHg 17%
    14:00 +47°C° 0 mm 2 m/S 747 mmHg 17%
    15:00 +47°C° 0 mm 3 m/S 746 mmHg 17%
    16:00 +46°C° 0 mm 2 m/S 746 mmHg 18%
    17:00 +45°C° 0 mm 2 m/S 746 mmHg 19%
    18:00 +43°C° 0 mm 2 m/S 746 mmHg 21%
    19:00 +42°C° 0 mm 1 m/S 746 mmHg 22%
    20:00 +41°C° 0 mm 1 m/S 747 mmHg 24%
    21:00 +37°C° 0 mm 0 m/S 747 mmHg 26%
    22:00 +40°C° 0 mm 1 m/S 747 mmHg 25%
    23:00 +39°C° 0 mm 1 m/S 747 mmHg 25%

    übermorgen, 23 Juli, Sonntag

    Zeit Temperatur Niederschläge Wind Luftdruck Luftfeuchtigkeit
    00:00 +39°C° 0 mm 2 m/S 747 mmHg 24%
    01:00 +39°C° 0 mm 2 m/S 746 mmHg 25%
    02:00 +38°C° 0 mm 2 m/S 746 mmHg 27%
    03:00 +38°C° 0 mm 2 m/S 746 mmHg 28%
    04:00 +38°C° 0 mm 2 m/S 746 mmHg 28%
    05:00 +38°C° 0 mm 2 m/S 746 mmHg 29%
    06:00 +38°C° 0 mm 2 m/S 747 mmHg 29%
    07:00 +39°C° 0 mm 2 m/S 747 mmHg 26%
    08:00 +41°C° 0 mm 2 m/S 747 mmHg 23%
    09:00 +43°C° 0 mm 1 m/S 747 mmHg 20%
    10:00 +44°C° 0 mm 1 m/S 747 mmHg 18%
    11:00 +45°C° 0 mm 1 m/S 747 mmHg 16%
    12:00 +46°C° 0 mm 1 m/S 747 mmHg 14%
    13:00 +47°C° 0 mm 2 m/S 746 mmHg 14%
    14:00 +47°C° 0 mm 3 m/S 746 mmHg 14%
    15:00 +48°C° 0 mm 4 m/S 745 mmHg 14%
    16:00 +47°C° 0 mm 4 m/S 745 mmHg 17%
    17:00 +45°C° 0 mm 4 m/S 745 mmHg 19%
    18:00 +45°C° 0 mm 5 m/S 745 mmHg 22%
    19:00 +43°C° 0 mm 4 m/S 746 mmHg 26%
    20:00 +42°C° 0 mm 4 m/S 746 mmHg 30%
    21:00 +41°C° 0 mm 4 m/S 747 mmHg 34%
    22:00 +41°C° 0 mm 4 m/S 746 mmHg 35%
    23:00 +40°C° 0 mm 3 m/S 746 mmHg 36%

    24 Juli, Montag

    Zeit Temperatur Niederschläge Wind Luftdruck Luftfeuchtigkeit
    00:00 +39°C° 0 mm 3 m/S 746 mmHg 37%
    01:00 +39°C° 0 mm 3 m/S 746 mmHg 37%
    02:00 +38°C° 0 mm 3 m/S 745 mmHg 37%
    03:00 +37°C° 0 mm 3 m/S 745 mmHg 37%
    04:00 +38°C° 0 mm 3 m/S 746 mmHg 36%
    05:00 +38°C° 0 mm 3 m/S 746 mmHg 36%
    06:00 +38°C° 0 mm 3 m/S 746 mmHg 36%
    07:00 +40°C° 0 mm 3 m/S 746 mmHg 32%
    08:00 +42°C° 0 mm 3 m/S 747 mmHg 27%
    09:00 +44°C° 0 mm 3 m/S 747 mmHg 23%
    10:00 +45°C° 0 mm 3 m/S 747 mmHg 22%
    11:00 +46°C° 0 mm 3 m/S 747 mmHg 20%
    12:00 +47°C° 0 mm 3 m/S 746 mmHg 19%
    13:00 +47°C° 0 mm 3 m/S 746 mmHg 18%
    14:00 +48°C° 0 mm 4 m/S 746 mmHg 17%
    15:00 +48°C° 0 mm 4 m/S 745 mmHg 17%
    16:00 +47°C° 0 mm 5 m/S 745 mmHg 22%
    17:00 +46°C° 0 mm 5 m/S 745 mmHg 26%
    18:00 +44°C° 0 mm 6 m/S 745 mmHg 31%
    19:00 +42°C° 0 mm 5 m/S 746 mmHg 34%
    20:00 +42°C° 0 mm 5 m/S 746 mmHg 36%
    21:00 +41°C° 0 mm 5 m/S 746 mmHg 39%
    22:00 +41°C° 0 mm 5 m/S 746 mmHg 39%
    23:00 +40°C° 0 mm 4 m/S 746 mmHg 39%

    25 Juli, Dienstag

    Zeit Temperatur Niederschläge Wind Luftdruck Luftfeuchtigkeit
    00:00 +40°C° 0 mm 4 m/S 745 mmHg 39%
    01:00 +40°C° 0 mm 4 m/S 745 mmHg 38%
    02:00 +38°C° 0 mm 3 m/S 745 mmHg 37%
    03:00 +38°C° 0 mm 3 m/S 745 mmHg 37%
    04:00 +38°C° 0 mm 3 m/S 745 mmHg 37%
    05:00 +38°C° 0 mm 3 m/S 746 mmHg 37%
    06:00 +38°C° 0 mm 3 m/S 746 mmHg 37%
    07:00 +39°C° 0 mm 3 m/S 746 mmHg 34%
    08:00 +42°C° 0 mm 3 m/S 747 mmHg 31%
    09:00 +42°C° 0 mm 2 m/S 747 mmHg 28%
    10:00 +43°C° 0 mm 2 m/S 747 mmHg 25%
    11:00 +45°C° 0 mm 2 m/S 746 mmHg 23%
    12:00 +46°C° 0 mm 2 m/S 746 mmHg 21%
    13:00 +46°C° 0 mm 3 m/S 746 mmHg 20%
    14:00 +47°C° 0 mm 3 m/S 745 mmHg 19%
    15:00 +47°C° 0 mm 3 m/S 745 mmHg 17%
    16:00 +47°C° 0 mm 3 m/S 745 mmHg 18%
    17:00 +47°C° 0 mm 4 m/S 745 mmHg 20%
    18:00 +45°C° 0 mm 4 m/S 745 mmHg 21%
    19:00 +44°C° 0 mm 4 m/S 745 mmHg 24%
    20:00 +43°C° 0 mm 4 m/S 746 mmHg 27%
    21:00 +42°C° 0 mm 4 m/S 746 mmHg 31%
    22:00 +42°C° 0 mm 4 m/S 746 mmHg 32%
    23:00 +42°C° 0 mm 3 m/S 745 mmHg 33%

    26 Juli, Mittwoch

    Zeit Temperatur Niederschläge Wind Luftdruck Luftfeuchtigkeit
    00:00 +40°C° 0 mm 3 m/S 745 mmHg 34%
    01:00 +40°C° 0 mm 3 m/S 745 mmHg 34%
    02:00 +39°C° 0 mm 3 m/S 745 mmHg 35%
    03:00 +39°C° 0 mm 3 m/S 745 mmHg 36%
    04:00 +39°C° 0 mm 3 m/S 746 mmHg 37%
    05:00 +38°C° 0 mm 3 m/S 746 mmHg 37%
    06:00 +38°C° 0 mm 3 m/S 747 mmHg 38%
    07:00 +40°C° 0 mm 2 m/S 747 mmHg 34%
    08:00 +41°C° 0 mm 2 m/S 747 mmHg 30%
    09:00 +42°C° 0 mm 2 m/S 747 mmHg 26%
    10:00 +43°C° 0 mm 2 m/S 747 mmHg 24%
    11:00 +45°C° 0 mm 2 m/S 747 mmHg 22%
    12:00 +47°C° 0 mm 2 m/S 747 mmHg 20%
    13:00 +47°C° 0 mm 3 m/S 746 mmHg 19%
    14:00 +47°C° 0 mm 3 m/S 746 mmHg 18%
    15:00 +49°C° 0 mm 4 m/S 746 mmHg 16%
    16:00 +48°C° 0 mm 4 m/S 746 mmHg 18%
    17:00 +47°C° 0 mm 4 m/S 746 mmHg 20%
    18:00 +45°C° 0 mm 4 m/S 746 mmHg 22%
    19:00 +44°C° 0 mm 4 m/S 746 mmHg 26%
    20:00 +43°C° 0 mm 4 m/S 746 mmHg 29%
    21:00 +42°C° 0 mm 4 m/S 747 mmHg 33%
    22:00 +42°C° 0 mm 4 m/S 747 mmHg 34%
    23:00 +40°C° 0 mm 3 m/S 746 mmHg 35%
    Mehr zeigen